Weather History for Ainsworth, NE

Change the Weather History Date:

Sunday, September 29, 2013

  Actual Average Record
Temperature  
Mean Temperature 64 °F -  
Max Temperature 82 °F 66 °F 82 °F (2000)
Min Temperature 47 °F 41 °F 30 °F (1999)
Growing Degree Days 14 (Base 50)    
Moisture  
Dew Point 39 °F    
Average Humidity 46    
Maximum Humidity 78    
Minimum Humidity 16    
Precipitation  
Precipitation 0.00 in - - ()
Sea Level Pressure  
Sea Level Pressure 29.86 in    
Wind  
Wind Speed 12 mph (SW)    
Max Wind Speed 28 mph    
Max Gust Speed 33 mph    
Visibility 10 miles    
Events      
Averages and records for this station are not official NWS values.
T = Trace of Precipitation, MM = Missing Value Source: NWS Daily Summary

Daily Weather History Graph

Daily Weather History Graph

Search for Another Location

Airport:

Trip Planner

Search our weather history database for the weather conditions in past years. The results will help you decide how hot, cold, wet, or windy it might be!

Date:

Astronomy

Sep. 29, 2013 Rise Set
Actual Time 7:35 AM CDT 7:24 PM CDT
Civil Twilight 7:07 AM CDT 7:52 PM CDT
Nautical Twilight 6:34 AM CDT 8:25 PM CDT
Astronomical Twilight 6:01 AM CDT 8:58 PM CDT
Moon 2:12 AM CDT (9/29) 4:26 PM CDT (9/29)
Length of Visible Light 12h 45m
Length of Day
11h 49m
Waning Crescent, 27% of the Moon is Illuminated
Sep 29
Waning Crescent
Oct 4
New
Oct 11
First Quarter
Oct 18
Full
Oct 26
Last Quarter

Hourly Weather History & Observations

Time (CDT) Temp. Dew Point Humidity Pressure Visibility Wind Dir Wind Speed Gust Speed Precip Events Conditions
12:15 AM 50.4 °F 41.0 °F 70% 29.99 in 10.0 mi SSW 11.5 mph - N/A   Clear
12:35 AM 51.8 °F 40.8 °F 66% 29.99 in 10.0 mi SSW 10.4 mph - N/A   Clear
12:55 AM 52.2 °F 40.3 °F 64% 29.99 in 10.0 mi SSW 10.4 mph - N/A   Clear
1:15 AM 52.7 °F 39.7 °F 61% 29.98 in 10.0 mi SSW 11.5 mph - N/A   Clear
1:35 AM 52.7 °F 39.7 °F 61% 29.99 in 10.0 mi SSW 11.5 mph - N/A   Clear
1:55 AM 51.4 °F 40.1 °F 65% 29.99 in 10.0 mi SW 10.4 mph - N/A   Clear
2:15 AM 51.1 °F 40.1 °F 66% 29.99 in 10.0 mi SW 10.4 mph - N/A   Clear
2:35 AM 50.9 °F 40.1 °F 67% 29.99 in 10.0 mi SW 11.5 mph - N/A   Clear
2:55 AM 50.4 °F 40.5 °F 69% 29.99 in 10.0 mi SW 11.5 mph - N/A   Clear
3:15 AM 50.4 °F 40.5 °F 69% 29.98 in 10.0 mi SW 11.5 mph - N/A   Clear
3:35 AM 50.0 °F 40.5 °F 70% 29.98 in 10.0 mi SW 10.4 mph - N/A   Clear
3:55 AM 50.0 °F 40.6 °F 70% 29.97 in 10.0 mi SW 11.5 mph - N/A   Clear
4:15 AM 50.0 °F 41.0 °F 71% 29.97 in 10.0 mi SW 9.2 mph - N/A   Clear
4:35 AM 48.9 °F 41.0 °F 74% 29.97 in 10.0 mi SW 6.9 mph - N/A   Clear
4:55 AM 48.2 °F 40.6 °F 75% 29.96 in 10.0 mi WSW 5.8 mph - N/A   Clear
5:15 AM 48.4 °F 40.8 °F 75% 29.97 in 10.0 mi SSW 8.1 mph - N/A   Clear
5:35 AM 49.3 °F 41.0 °F 73% 29.96 in 10.0 mi SW 9.2 mph - N/A   Clear
5:55 AM 48.9 °F 41.0 °F 74% 29.96 in 10.0 mi SW 9.2 mph - N/A   Clear
6:15 AM 48.2 °F 40.8 °F 76% 29.96 in 10.0 mi WSW 6.9 mph - N/A   Clear
6:35 AM 47.3 °F 40.8 °F 78% 29.96 in 10.0 mi WSW 6.9 mph - N/A   Clear
6:55 AM 47.3 °F 40.5 °F 77% 29.95 in 10.0 mi SW 5.8 mph - N/A   Clear
7:15 AM 47.8 °F 40.5 °F 76% 29.95 in 10.0 mi SSW 6.9 mph - N/A   Clear
7:35 AM 49.5 °F 40.1 °F 70% 29.94 in 10.0 mi SW 9.2 mph - N/A   Clear
7:55 AM 49.1 °F 40.5 °F 72% 29.94 in 10.0 mi SW 6.9 mph - N/A   Clear
8:15 AM 50.5 °F 41.0 °F 70% 29.94 in 10.0 mi SSW 6.9 mph - N/A   Clear
8:35 AM 52.3 °F 41.0 °F 65% 29.94 in 10.0 mi SW 9.2 mph - N/A   Clear
8:55 AM 55.0 °F 41.2 °F 60% 29.92 in 10.0 mi SSW 8.1 mph - N/A   Clear
9:15 AM 57.7 °F 41.2 °F 54% 29.92 in 10.0 mi SW 9.2 mph - N/A   Clear
9:35 AM 60.1 °F 41.5 °F 50% 29.92 in 10.0 mi SSW 12.7 mph - N/A   Clear
9:55 AM 62.4 °F 41.9 °F 47% 29.92 in 10.0 mi SSW 10.4 mph 17.3 mph N/A   Clear
10:15 AM 64.6 °F 41.4 °F 43% 29.92 in 10.0 mi SW 12.7 mph - N/A   Clear
10:35 AM 66.4 °F 41.2 °F 40% 29.92 in 10.0 mi SW 12.7 mph 17.3 mph N/A   Clear
10:55 AM 69.1 °F 40.6 °F 36% 29.91 in 10.0 mi SW 11.5 mph - N/A   Clear
11:15 AM 70.9 °F 41.0 °F 34% 29.91 in 10.0 mi SW 12.7 mph 17.3 mph N/A   Clear
11:35 AM 72.0 °F 41.0 °F 33% 29.90 in 10.0 mi SSW 13.8 mph - N/A   Clear
11:55 AM 72.5 °F 41.2 °F 32% 29.90 in 10.0 mi South 12.7 mph - N/A   Clear
12:15 PM 74.5 °F 41.0 °F 30% 29.88 in 10.0 mi SSW 15.0 mph - N/A   Clear
12:35 PM 75.9 °F 40.1 °F 28% 29.87 in 10.0 mi SSW 18.4 mph 24.2 mph N/A   Clear
12:55 PM 77.7 °F 38.5 °F 24% 29.85 in 10.0 mi SSW 17.3 mph 26.5 mph N/A   Clear
1:15 PM 78.6 °F 38.3 °F 23% 29.84 in 10.0 mi SW 15.0 mph 26.5 mph N/A   Clear
1:35 PM 79.0 °F 38.5 °F 23% 29.83 in 10.0 mi SSW 21.9 mph 26.5 mph N/A   Clear
1:55 PM 80.1 °F 38.7 °F 23% 29.81 in 10.0 mi SSW 19.6 mph 27.6 mph N/A   Clear
2:15 PM 80.6 °F 35.1 °F 19% 29.80 in 10.0 mi SW 19.6 mph 32.2 mph N/A   Clear
2:35 PM 81.7 °F 34.0 °F 18% 29.80 in 10.0 mi SW 20.7 mph 31.1 mph N/A   Clear
2:55 PM 81.5 °F 35.1 °F 19% 29.78 in 10.0 mi SW 19.6 mph 28.8 mph N/A   Clear
3:15 PM 81.9 °F 33.1 °F 17% 29.77 in 10.0 mi SW 20.7 mph 31.1 mph N/A   Clear
3:35 PM 81.9 °F 33.1 °F 17% 29.76 in 10.0 mi SSW 23.0 mph 28.8 mph N/A   Clear
3:55 PM 82.0 °F 32.4 °F 17% 29.76 in 10.0 mi SW 19.6 mph 31.1 mph N/A   Clear
4:15 PM 81.9 °F 32.5 °F 17% 29.75 in 10.0 mi SW 21.9 mph 29.9 mph N/A   Clear
4:35 PM 82.4 °F 31.6 °F 16% 29.74 in 10.0 mi SW 26.5 mph 32.2 mph N/A   Clear
4:55 PM 82.6 °F 33.8 °F 17% 29.74 in 10.0 mi SW 13.8 mph 32.2 mph N/A   Clear
5:15 PM 82.6 °F 31.6 °F 16% 29.74 in 10.0 mi WSW 27.6 mph 33.4 mph N/A   Clear
5:35 PM 82.2 °F 31.5 °F 16% 29.73 in 10.0 mi SW 21.9 mph 27.6 mph N/A   Clear
5:55 PM 81.7 °F 32.0 °F 17% 29.74 in 10.0 mi WSW 13.8 mph 20.7 mph N/A   Clear
6:15 PM 80.6 °F 32.0 °F 17% 29.74 in 10.0 mi WSW 12.7 mph - N/A   Clear
6:35 PM 78.4 °F 35.1 °F 21% 29.74 in 10.0 mi SW 10.4 mph - N/A   Clear
6:55 PM 73.9 °F 37.2 °F 26% 29.74 in 10.0 mi SW 8.1 mph - N/A   Clear
7:15 PM 70.9 °F 37.4 °F 29% 29.74 in 10.0 mi SSW 6.9 mph - N/A   Clear
7:35 PM 64.0 °F 40.3 °F 42% 29.73 in 10.0 mi South 9.2 mph - N/A   Clear
7:55 PM 65.1 °F 39.7 °F 39% 29.73 in 10.0 mi SSW 10.4 mph - N/A   Clear
8:15 PM 66.9 °F 38.5 °F 35% 29.74 in 10.0 mi South 9.2 mph - N/A   Clear
8:35 PM 65.7 °F 38.5 °F 37% 29.74 in 10.0 mi South 12.7 mph - N/A   Clear
8:55 PM 64.0 °F 38.7 °F 39% 29.75 in 10.0 mi South 10.4 mph - N/A   Clear
9:15 PM 65.8 °F 39.4 °F 38% 29.75 in 10.0 mi SSW 15.0 mph - N/A   Clear
9:35 PM 66.2 °F 41.2 °F 40% 29.75 in 10.0 mi SSW 15.0 mph - N/A   Clear
9:55 PM 65.3 °F 42.1 °F 43% 29.76 in 10.0 mi SSW 16.1 mph - N/A   Clear
10:15 PM 65.7 °F 42.6 °F 43% 29.76 in 10.0 mi South 15.0 mph - N/A   Clear
10:35 PM 65.1 °F 42.8 °F 44% 29.76 in 10.0 mi SSW 15.0 mph - N/A   Clear
10:55 PM 64.4 °F 43.0 °F 46% 29.76 in 10.0 mi SSW 13.8 mph 20.7 mph N/A   Clear
11:15 PM 63.7 °F 43.5 °F 48% 29.76 in 10.0 mi South 12.7 mph - N/A   Clear
11:35 PM 63.7 °F 43.7 °F 48% 29.76 in 10.0 mi South 13.8 mph - N/A   Clear
11:55 PM 64.2 °F 43.7 °F 47% 29.76 in 10.0 mi SSW 13.8 mph 19.6 mph N/A   Clear